• In Österreich
  • Länderverzeichnis
  • Für 7 Tage
  • Wassertemperatur
  • Satellitenkarten
  • Wetterkarte
  • News
  • Widgets
  • user-avatar
    Anmelden

    Stündliche Wetter Kerava

    Heute, 19 November, Sonntag

    Zeit Temperatur Niederschläge Wind Luftdruck Luftfeuchtigkeit
    00:00 +3°C° 0,1 mm 7 m/S 743 mmHg 85%
    01:00 +3°C° 0,1 mm 7 m/S 742 mmHg 83%
    02:00 +3°C° 0 mm 7 m/S 742 mmHg 84%
    03:00 +3°C° 0,4 mm 6 m/S 742 mmHg 84%
    04:00 +2°C° 0,4 mm 6 m/S 742 mmHg 85%
    05:00 +2°C° 0,4 mm 6 m/S 742 mmHg 86%
    06:00 +2°C° 0,6 mm 6 m/S 742 mmHg 86%
    07:00 +2°C° 0,6 mm 6 m/S 742 mmHg 86%
    08:00 +1°C° 0 mm 4 m/S 743 mmHg 87%
    09:00 +1°C° 0,4 mm 4 m/S 743 mmHg 86%
    10:00 +1°C° 0,4 mm 5 m/S 743 mmHg 86%
    11:00 +1°C° 0,4 mm 5 m/S 743 mmHg 86%
    12:00 +1°C° 0,3 mm 4 m/S 744 mmHg 86%
    13:00 +1°C° 0,3 mm 4 m/S 744 mmHg 86%
    14:00 +1°C° 0,3 mm 4 m/S 744 mmHg 86%
    15:00 +1°C° 0,3 mm 4 m/S 744 mmHg 87%
    16:00 +1°C° 0,3 mm 4 m/S 744 mmHg 88%
    17:00 +2°C° 0,3 mm 3 m/S 744 mmHg 89%
    18:00 +2°C° 0,2 mm 3 m/S 744 mmHg 89%
    19:00 +1°C° 0,2 mm 3 m/S 744 mmHg 90%
    20:00 +1°C° 0,2 mm 3 m/S 744 mmHg 90%
    21:00 +1°C° 0,2 mm 3 m/S 744 mmHg 90%
    22:00 +1°C° 0,2 mm 3 m/S 745 mmHg 90%
    23:00 +1°C° 0,2 mm 3 m/S 745 mmHg 90%

    Morgen, 20 November, Montag

    Zeit Temperatur Niederschläge Wind Luftdruck Luftfeuchtigkeit
    00:00 +1°C° 0,3 mm 3 m/S 745 mmHg 90%
    01:00 +1°C° 0,3 mm 3 m/S 745 mmHg 90%
    02:00 +2°C° 0,3 mm 2 m/S 745 mmHg 90%
    03:00 +1°C° 0,2 mm 3 m/S 745 mmHg 90%
    04:00 0°C° 0,2 mm 3 m/S 745 mmHg 90%
    05:00 0°C° 0,2 mm 3 m/S 745 mmHg 91%
    06:00 0°C° 0,1 mm 3 m/S 746 mmHg 91%
    07:00 -1°C° 0,1 mm 3 m/S 746 mmHg 91%
    08:00 -1°C° 0,1 mm 3 m/S 746 mmHg 91%
    09:00 -1°C° 0,1 mm 3 m/S 747 mmHg 89%
    10:00 -2°C° 0,1 mm 4 m/S 747 mmHg 88%
    11:00 -2°C° 0,1 mm 4 m/S 748 mmHg 86%
    12:00 -2°C° 0 mm 4 m/S 748 mmHg 85%
    13:00 -1°C° 0 mm 3 m/S 748 mmHg 84%
    14:00 -1°C° 0 mm 3 m/S 748 mmHg 83%
    15:00 -1°C° 0 mm 3 m/S 748 mmHg 85%
    16:00 -1°C° 0 mm 3 m/S 749 mmHg 87%
    17:00 -2°C° 0 mm 3 m/S 749 mmHg 88%
    18:00 -2°C° 0 mm 3 m/S 749 mmHg 89%
    19:00 -2°C° 0 mm 2 m/S 749 mmHg 89%
    20:00 -2°C° 0 mm 2 m/S 750 mmHg 89%
    21:00 -2°C° 0 mm 2 m/S 750 mmHg 89%
    22:00 -2°C° 0 mm 2 m/S 750 mmHg 89%
    23:00 -2°C° 0 mm 2 m/S 750 mmHg 88%

    übermorgen, 21 November, Dienstag

    Zeit Temperatur Niederschläge Wind Luftdruck Luftfeuchtigkeit
    00:00 -2°C° 0 mm 2 m/S 750 mmHg 88%
    01:00 -2°C° 0 mm 2 m/S 751 mmHg 88%
    02:00 -2°C° 0 mm 2 m/S 751 mmHg 88%
    03:00 -2°C° 0 mm 2 m/S 751 mmHg 87%
    04:00 -2°C° 0 mm 2 m/S 751 mmHg 87%
    05:00 -2°C° 0 mm 2 m/S 751 mmHg 87%
    06:00 -2°C° 0 mm 2 m/S 751 mmHg 88%
    07:00 -2°C° 0 mm 2 m/S 751 mmHg 88%
    08:00 -3°C° 0 mm 2 m/S 751 mmHg 89%
    09:00 -2°C° 0 mm 2 m/S 751 mmHg 88%
    10:00 -2°C° 0 mm 2 m/S 751 mmHg 87%
    11:00 -2°C° 0 mm 2 m/S 751 mmHg 86%
    12:00 -2°C° 0 mm 2 m/S 752 mmHg 85%
    13:00 -1°C° 0 mm 2 m/S 752 mmHg 85%
    14:00 -1°C° 0 mm 2 m/S 752 mmHg 85%
    15:00 -2°C° 0 mm 2 m/S 752 mmHg 87%
    16:00 -2°C° 0 mm 2 m/S 752 mmHg 88%
    17:00 -2°C° 0 mm 2 m/S 752 mmHg 90%
    18:00 -2°C° 0 mm 2 m/S 752 mmHg 91%
    19:00 -2°C° 0 mm 2 m/S 752 mmHg 92%
    20:00 -2°C° 0 mm 2 m/S 752 mmHg 93%
    21:00 -2°C° 0 mm 2 m/S 752 mmHg 93%
    22:00 -3°C° 0 mm 2 m/S 753 mmHg 93%
    23:00 -3°C° 0 mm 2 m/S 753 mmHg 93%

    22 November, Mittwoch

    Zeit Temperatur Niederschläge Wind Luftdruck Luftfeuchtigkeit
    00:00 -3°C° 0 mm 2 m/S 753 mmHg 93%
    01:00 -3°C° 0 mm 2 m/S 753 mmHg 93%
    02:00 -3°C° 0 mm 2 m/S 753 mmHg 93%
    03:00 -1°C° 0 mm 1 m/S 753 mmHg 94%
    04:00 -1°C° 0 mm 1 m/S 754 mmHg 94%
    05:00 -1°C° 0 mm 1 m/S 754 mmHg 95%
    06:00 -1°C° 0 mm 1 m/S 754 mmHg 95%
    07:00 -1°C° 0 mm 1 m/S 754 mmHg 95%
    08:00 -1°C° 0 mm 1 m/S 754 mmHg 95%
    09:00 -1°C° 0 mm 1 m/S 754 mmHg 93%
    10:00 0°C° 0 mm 1 m/S 754 mmHg 92%
    11:00 0°C° 0 mm 1 m/S 754 mmHg 90%
    12:00 0°C° 0 mm 1 m/S 754 mmHg 90%
    13:00 +1°C° 0 mm 1 m/S 754 mmHg 89%
    14:00 -1°C° 0 mm 2 m/S 754 mmHg 89%
    15:00 -1°C° 0 mm 2 m/S 754 mmHg 89%
    16:00 -1°C° 0 mm 2 m/S 754 mmHg 89%
    17:00 -1°C° 0 mm 3 m/S 754 mmHg 90%
    18:00 -1°C° 0 mm 3 m/S 754 mmHg 88%
    19:00 -2°C° 0 mm 4 m/S 754 mmHg 86%
    20:00 -2°C° 0 mm 4 m/S 754 mmHg 83%
    21:00 -2°C° 0 mm 5 m/S 754 mmHg 82%
    22:00 -2°C° 0 mm 5 m/S 753 mmHg 80%
    23:00 -3°C° 0 mm 6 m/S 753 mmHg 79%

    23 November, Donnerstag

    Zeit Temperatur Niederschläge Wind Luftdruck Luftfeuchtigkeit
    00:00 -3°C° 0 mm 6 m/S 753 mmHg 78%
    01:00 -3°C° 0 mm 6 m/S 752 mmHg 76%
    02:00 -2°C° 0 mm 7 m/S 752 mmHg 75%
    03:00 -2°C° 0,1 mm 7 m/S 751 mmHg 77%
    04:00 -2°C° 0,1 mm 7 m/S 751 mmHg 79%
    05:00 -2°C° 0,1 mm 7 m/S 750 mmHg 80%
    06:00 -2°C° 0,6 mm 8 m/S 749 mmHg 83%
    07:00 -2°C° 0,6 mm 8 m/S 749 mmHg 85%
    08:00 -2°C° 0,6 mm 8 m/S 748 mmHg 87%
    09:00 -1°C° 1,3 mm 8 m/S 748 mmHg 88%
    10:00 -1°C° 1,3 mm 7 m/S 747 mmHg 90%
    11:00 -1°C° 1,3 mm 7 m/S 746 mmHg 91%
    12:00 +2°C° 0,8 mm 7 m/S 746 mmHg 92%
    13:00 +3°C° 0,8 mm 7 m/S 745 mmHg 92%
    14:00 +4°C° 0,8 mm 8 m/S 745 mmHg 93%
    15:00 +4°C° 0,3 mm 8 m/S 744 mmHg 93%
    16:00 +4°C° 0,3 mm 8 m/S 744 mmHg 92%
    17:00 +5°C° 0,3 mm 8 m/S 743 mmHg 92%
    18:00 +5°C° 0,6 mm 8 m/S 743 mmHg 92%
    19:00 +5°C° 0,6 mm 8 m/S 744 mmHg 92%
    20:00 +5°C° 0,6 mm 8 m/S 744 mmHg 92%
    21:00 +5°C° 0,2 mm 8 m/S 744 mmHg 92%
    22:00 +5°C° 0,2 mm 7 m/S 744 mmHg 92%
    23:00 +5°C° 0,2 mm 7 m/S 745 mmHg 92%

    24 November, Freitag

    Zeit Temperatur Niederschläge Wind Luftdruck Luftfeuchtigkeit
    00:00 +5°C° 0,1 mm 7 m/S 745 mmHg 92%
    01:00 +5°C° 0,1 mm 7 m/S 745 mmHg 92%
    02:00 +5°C° 0,1 mm 6 m/S 745 mmHg 92%
    03:00 +5°C° 0,1 mm 6 m/S 745 mmHg 93%
    04:00 +5°C° 0,1 mm 6 m/S 746 mmHg 93%
    05:00 +5°C° 0,1 mm 6 m/S 746 mmHg 93%
    06:00 +7°C° 0 mm 6 m/S 746 mmHg 93%
    07:00 +7°C° 0 mm 6 m/S 747 mmHg 93%
    08:00 +7°C° 0 mm 6 m/S 747 mmHg 93%
    09:00 +7°C° 0 mm 6 m/S 747 mmHg 93%
    10:00 +7°C° 0 mm 6 m/S 748 mmHg 93%
    11:00 +7°C° 0 mm 6 m/S 748 mmHg 93%
    12:00 +7°C° 0 mm 6 m/S 748 mmHg 92%
    13:00 +7°C° 0 mm 6 m/S 749 mmHg 91%
    14:00 +7°C° 0 mm 6 m/S 749 mmHg 91%
    15:00 +7°C° 0 mm 6 m/S 749 mmHg 91%
    16:00 +8°C° 0 mm 6 m/S 749 mmHg 91%
    17:00 +8°C° 0 mm 7 m/S 749 mmHg 91%
    18:00 +8°C° 0 mm 7 m/S 749 mmHg 91%
    19:00 +8°C° 0 mm 7 m/S 749 mmHg 91%
    20:00 +6°C° 0 mm 7 m/S 749 mmHg 91%
    21:00 +8°C° 0 mm 7 m/S 749 mmHg 91%
    22:00 +8°C° 0 mm 7 m/S 749 mmHg 91%
    23:00 +8°C° 0 mm 7 m/S 749 mmHg 90%
    Mehr zeigen